User: anonymous   Login
Location: Unspecified
(0.0000°N, 0.0000°E)
Time: 00:20:24
(UTC+00:00)
Language:

USA 267 - Orbit

View from above orbital plane
View from above orbital plane
View from above satellite
View from above satellite

Ground track
Ground track

The orbit data is extracted from the following two-line orbital elements,

1 41334U 16010A   19195.90863783 0.00000000  00000-0  00000-0 0    05
2 41334 123.0013 276.8530 0005241 168.6237 191.3763 13.41420442    08
Epoch (UTC): 14 July 2019 21:48:26
Eccentricity: 0.0005241
inclination: 123.0013°
perigee height: 1100 km
apogee height: 1108 km
right ascension of ascending node: 276.8530°
argument of perigee: 168.6237°
revolutions per day: 13.41420442
mean anomaly at epoch: 191.3763°
orbit number at epoch: 0

The dashed part of the orbit path shows where the satellite is in the earth's shadow,  

DLR